IW2LSY-11 Weather Reports


time (UTC)temp
C
wind
direction
speed
KPH
gust
KPH
rain 1hr
cm
rain 24hr
cm
rain mn
cm
humidity
%
barometer
mb
20260507203004 14 131 0.0 0.0 0.00 0.00 0.00 66 1015.2
20260507202005 14 131 0.0 0.0 0.00 0.00 0.00 66 1015.1
20260507201005 14 131 0.0 0.0 0.00 0.00 0.00 68 1014.8
20260507200005 15 131 0.0 0.0 0.00 0.00 0.00 64 1014.7
20260507195005 15 131 0.0 0.0 0.00 0.00 0.00 65 1014.7
20260507194005 15 131 0.0 0.0 0.00 0.00 0.00 66 1014.7
20260507193005 15 131 0.0 0.0 0.00 0.00 0.00 66 1014.5
20260507192006 15 131 0.0 0.0 0.00 0.00 0.00 63 1014.3
20260507191006 15 131 0.0 0.0 0.00 0.00 0.00 63 1014.0
20260507190006 16 131 0.0 0.0 0.00 0.00 0.00 58 1013.8
20260507185006 16 131 0.0 0.0 0.00 0.00 0.00 58 1013.6
20260507184007 16 131 0.0 0.0 0.00 0.00 0.00 57 1013.3
20260507183007 17 131 0.0 0.0 0.00 0.00 0.00 53 1013.0
20260507182007 17 131 0.0 0.0 0.00 0.00 0.00 48 1012.8
20260507181007 17 131 0.0 0.0 0.00 0.00 0.00 46 1012.7
20260507180007 18 131 0.0 0.0 0.00 0.00 0.00 44 1012.5
20260507175007 18 131 0.0 0.0 0.00 0.00 0.00 43 1012.4
20260507174008 20 131 0.0 0.0 0.00 0.00 0.00 40 1012.2
20260507173008 20 131 0.0 0.0 0.00 0.00 0.00 38 1012.1
20260507172008 20 131 0.0 0.0 0.00 0.00 0.00 37 1012.0
20260507171008 21 131 0.0 0.0 0.00 0.00 0.00 38 1011.9
20260507170009 21 131 0.0 0.0 0.00 0.00 0.00 39 1011.9
20260507165010 21 131 0.0 0.0 0.00 0.00 0.00 38 1011.9
20260507164009 21 131 0.0 0.0 0.00 0.00 0.00 41 1012.0
20260507163010 21 131 0.0 0.0 0.00 0.00 0.00 39 1012.0
20260507162010 21 131 0.0 0.0 0.00 0.00 0.00 39 1012.0
20260507161010 20 131 0.0 0.0 0.00 0.00 0.00 39 1011.9
20260507160010 21 131 0.0 0.0 0.00 0.00 0.00 39 1011.9
20260507155011 21 131 0.0 0.0 0.00 0.00 0.00 35 1011.8
20260507154011 21 131 0.0 0.0 0.00 0.00 0.00 34 1011.8
20260507153011 21 131 0.0 0.0 0.00 0.00 0.00 33 1011.6
20260507152012 22 131 0.0 0.0 0.00 0.00 0.00 32 1011.6
20260507151012 22 131 0.0 0.0 0.00 0.00 0.00 30 1011.5
20260507150013 22 131 0.0 0.0 0.00 0.00 0.00 29 1011.5
20260507145013 23 131 0.0 0.0 0.00 0.00 0.00 29 1011.4
20260507144013 22 131 0.0 0.0 0.00 0.00 0.00 31 1011.5
20260507143014 22 131 0.0 0.0 0.00 0.00 0.00 30 1011.6
20260507142014 22 131 0.0 0.0 0.00 0.00 0.00 29 1011.6
20260507141014 22 131 0.0 0.0 0.00 0.00 0.00 31 1011.7
20260507140014 22 131 0.0 0.0 0.00 0.00 0.00 31 1011.8
20260507135004 21 131 0.0 0.0 0.00 0.00 0.00 31 1011.8
20260507134004 22 131 0.0 0.0 0.00 0.00 0.00 32 1011.9
20260507133005 22 131 0.0 0.0 0.00 0.00 0.00 33 1012.0
20260507132005 23 131 0.0 0.0 0.00 0.00 0.00 31 1012.0
20260507131005 23 131 0.0 0.0 0.00 0.00 0.00 33 1012.1
20260507130005 22 131 0.0 0.0 0.00 0.00 0.00 33 1012.2
20260507125005 22 131 0.0 0.0 0.00 0.00 0.00 31 1012.2
20260507124005 22 131 0.0 0.0 0.00 0.00 0.00 33 1012.2
20260507123010 22 131 0.0 0.0 0.00 0.00 0.00 33 1012.3
20260507122005 22 131 0.0 0.0 0.00 0.00 0.00 32 1012.4
20260507121005 21 131 0.0 0.0 0.00 0.00 0.00 32 1012.5
20260507120006 22 131 0.0 0.0 0.00 0.00 0.00 31 1012.6
20260507115005 21 131 0.0 0.0 0.00 0.00 0.00 33 1012.7
20260507114006 22 131 0.0 0.0 0.00 0.00 0.00 33 1012.8
20260507113007 20 131 0.0 0.0 0.00 0.00 0.00 34 1012.9
20260507112007 21 131 0.0 0.0 0.00 0.00 0.00 35 1013.0
20260507111007 21 131 0.0 0.0 0.00 0.00 0.00 39 1013.2
20260507110007 21 131 0.0 0.0 0.00 0.00 0.00 37 1013.2
20260507105008 21 131 0.0 0.0 0.00 0.00 0.00 39 1013.3
20260507104009 19 131 0.0 0.0 0.00 0.00 0.00 39 1013.4
20260507103009 20 131 0.0 0.0 0.00 0.00 0.00 41 1013.6
20260507102009 19 131 0.0 0.0 0.00 0.00 0.00 42 1013.7
20260507101010 19 131 0.0 0.0 0.00 0.00 0.00 42 1013.7
20260507100010 18 131 0.0 0.0 0.00 0.00 0.00 41 1013.8
20260507095010 19 131 0.0 0.0 0.00 0.00 0.00 40 1013.9
20260507094011 18 131 0.0 0.0 0.00 0.00 0.00 41 1014.0
20260507093012 18 131 0.0 0.0 0.00 0.00 0.00 40 1014.1
20260507092012 18 131 0.0 0.0 0.00 0.00 0.00 42 1014.2
20260507091013 18 131 0.0 0.0 0.00 0.00 0.00 45 1014.3
20260507090013 18 131 0.0 0.0 0.00 0.00 0.00 45 1014.3
20260507085014 18 131 0.0 0.0 0.00 0.00 0.00 49 1014.4
20260507084004 17 131 0.0 0.0 0.00 0.00 0.00 47 1014.6
20260507083005 16 131 0.0 0.0 0.00 0.00 0.00 46 1014.6
20260507082014 16 131 0.0 0.0 0.00 0.00 0.00 46 1014.7
20260507081014 17 131 0.0 0.0 0.00 0.00 0.00 52 1014.7
20260507080014 17 131 0.0 0.0 0.00 0.00 0.00 49 1014.8
20260507075004 15 131 0.0 0.0 0.00 0.00 0.00 47 1014.8
20260507074004 16 131 0.0 0.0 0.00 0.00 0.00 48 1014.9
20260507073004 15 131 0.0 0.0 0.00 0.00 0.00 56 1015.0
20260507072006 16 131 0.0 0.0 0.00 0.00 0.00 56 1015.0
20260507071005 15 131 0.0 0.0 0.00 0.00 0.00 58 1014.9
20260507070010 15 131 0.0 0.0 0.00 0.00 0.00 58 1014.9
20260507065006 13 131 0.0 0.0 0.00 0.00 0.00 64 1015.0
20260507064007 15 131 0.0 0.0 0.00 0.00 0.00 61 1015.0
20260507063007 15 131 0.0 0.0 0.00 0.00 0.00 67 1014.9
20260507062008 14 131 0.0 0.0 0.00 0.00 0.00 65 1014.9
20260507061008 13 131 0.0 0.0 0.00 0.00 0.00 68 1015.1
20260507060008 13 131 0.0 0.0 0.00 0.00 0.00 71 1015.1
20260507055008 12 131 0.0 0.0 0.00 0.00 0.00 75 1015.2
20260507054009 13 131 0.0 0.0 0.00 0.00 0.00 73 1015.1
20260507053009 13 131 0.0 0.0 0.00 0.00 0.00 72 1015.0
20260507052009 13 131 0.0 0.0 0.00 0.00 0.00 76 1015.0
20260507051010 12 131 0.0 0.0 0.00 0.00 0.00 84 1015.0
20260507050010 10 131 0.0 0.0 0.00 0.00 0.00 10 1014.9
20260507045011 8 131 0.0 0.0 0.00 0.00 0.00 10 1015.0
20260507044011 10 131 0.0 0.0 0.00 0.00 0.00 99 1014.9
20260507043011 9 131 0.0 0.0 0.00 0.00 0.00 10 1014.8
20260507042012 10 131 0.0 0.0 0.00 0.00 0.00 98 1014.8
20260507041012 10 131 0.0 0.0 0.00 0.00 0.00 98 1014.9
20260507040013 10 131 0.0 0.0 0.00 0.00 0.00 10 1014.9
20260507035013 9 131 0.0 0.0 0.00 0.00 0.00 10 1015.0
20260507034014 8 131 0.0 0.0 0.00 0.00 0.00 10 1015.1
20260507033014 9 131 0.0 0.0 0.00 0.00 0.00 10 1015.4
20260507032004 10 131 0.0 0.0 0.00 0.00 0.00 97 1015.4
20260507031005 10 131 0.0 0.0 0.00 0.00 0.00 97 1015.3
20260507030005 10 131 0.0 0.0 0.00 0.00 0.00 96 1015.2
20260507025005 10 131 0.0 0.0 0.00 0.00 0.00 10 1015.0
20260507024005 10 131 0.0 0.0 0.00 0.00 0.00 96 1014.9
20260507023005 10 131 0.0 0.0 0.00 0.00 0.00 96 1014.8
20260507022005 10 131 0.0 0.0 0.00 0.00 0.00 94 1014.8
20260507021005 10 131 0.0 0.0 0.00 0.00 0.00 94 1014.8
20260507020006 10 131 0.0 0.0 0.00 0.00 0.00 97 1014.7
20260507015007 10 131 0.0 0.0 0.00 0.00 0.00 96 1014.6
20260507014007 10 131 0.0 0.0 0.00 0.00 0.00 95 1014.4
20260507013007 10 131 0.0 0.0 0.00 0.00 0.00 98 1014.3
20260507012008 10 131 0.0 0.0 0.00 0.00 0.00 98 1014.5
20260507011008 10 131 0.0 0.0 0.00 0.00 0.00 97 1014.5
20260507010009 10 131 0.0 0.0 0.00 0.00 0.00 97 1014.6
20260507005009 10 131 0.0 0.0 0.00 0.00 0.00 96 1014.6
20260507004010 10 131 0.0 0.0 0.00 0.00 0.00 97 1014.8
20260507003010 10 131 0.0 0.0 0.00 0.00 0.00 98 1015.1
20260507002010 10 131 0.0 0.0 0.00 0.00 0.00 95 1014.8
20260507001011 10 131 0.0 0.0 0.00 0.00 0.00 94 1014.8
20260507000012 10 131 0.0 0.0 0.00 0.00 0.00 97 1014.9
20260506235012 10 131 0.0 0.0 0.00 0.00 0.00 97 1014.7
20260506234013 10 131 0.0 0.0 0.00 0.00 0.00 93 1014.6
20260506233014 10 131 0.0 0.0 0.00 0.00 0.00 92 1014.3
20260506232014 10 131 0.0 0.0 0.00 0.00 0.00 98 1014.0
20260506231014 9 131 0.0 0.0 0.00 0.00 0.00 10 1013.8
20260506230014 10 131 0.0 0.0 0.00 0.00 0.00 99 1013.7
20260506225015 9 145 0.0 0.0 0.00 0.00 0.00 10 1014.0
20260506224005 8 145 0.0 0.0 0.00 0.00 0.00 10 1014.2
20260506223005 10 145 0.0 0.0 0.00 0.00 0.00 94 1014.3
20260506222006 10 145 0.0 0.0 0.00 0.00 0.00 96 1014.2
20260506221006 10 145 0.0 0.0 0.00 0.00 0.00 98 1014.2
20260506220006 10 145 0.0 0.0 0.00 0.00 0.00 97 1014.2
20260506215007 11 145 0.0 0.0 0.00 0.00 0.00 92 1014.2
20260506214007 11 145 0.0 0.0 0.00 0.00 0.00 92 1014.3
20260506213008 10 145 0.0 0.0 0.00 0.00 0.00 94 1014.3
20260506212009 11 145 0.0 0.0 0.00 0.00 0.00 92 1014.5
20260506211009 10 145 0.0 0.0 0.00 0.00 0.00 94 1014.7
20260506210010 10 145 0.0 0.0 0.00 0.00 0.00 94 1014.8
20260506205011 11 145 0.0 0.0 0.00 0.00 0.00 96 1014.8
20260506204011 10 145 0.0 0.0 0.00 0.00 0.00 99 1014.8